www.pogodaiklimat.ru

Погода и климат >> Архив погоды >> Венгрия >> Мишкольц


ПОГОДА в Мишкольце

  • Прогноз погоды в Мишкольце
  • Монитор погоды в Мишкольце

АРХИВ ПОГОДЫ в Мишкольце

Время (UTC), дата Ветер
(напр.,м/с)
 
Видим.   Явления Облачность Т
(С)
Тd
(С)
f
(%)
Тe
(С)
Тes
(С)
Комфортность P
(гПа)
Po
(гПа)
Тmin
(С)
Tmax
(С)
R
(мм)
R24
(мм)
S
(см)
04 12.06 штиль 0 н/о н/о +18.7 +16.1 85 +20 +20 1015.1 996.0
05 12.06 штиль 0 н/о н/о +19.6 +16.4 82 +22 +22 комфорт 1015.3 996.2
06 12.06 штиль 0 20 км 5/1 1200 м
[Sc Ac cast Ci sp]
+22.9 +16.7 68 +28 +28 душно 1015.3 996.4 +17.5
07 12.06 В 1 н/о н/о +24.0 +17.3 66 +28 +28 душно 1015.5 996.7
08 12.06 В 1 н/о н/о +26.5 +17.6 58 +31 +31 душно 1015.6 997.0
09 12.06 В 1 н/о н/о +28.4 +18.5 55 +33 +33 очень
душно
1015.1 996.6
10 12.06 ЮВ 2 н/о н/о +29.2 +17.7 50 +34 +34 очень
душно
1014.9 996.4
11 12.06 ЮВ 2 н/о н/о +29.8 +17.9 49 +34 +34 очень
душно
1014.5 996.1
12 12.06 ЮВ 1 35 км 1/1 1500 м
[Cu hum]
+30.8 +17.8 46 +35 +35 очень
душно
1013.8 995.5
13 12.06 ЮВ 1 н/о н/о +31.5 +16.3 40 +34 +34 душно 1013.4 995.1
14 12.06 ЮВ 2 н/о н/о +31.2 +16.0 40 +34 +34 душно 1013.3 995.0
15 12.06 Ю 2 н/о н/о +31.5 +16.7 41 +35 +35 очень
душно
1012.9 994.6
16 12.06 ЮВ 1 н/о н/о +30.9 +16.5 42 +34 +34 душно 1012.9 994.6
17 12.06 Ю 1 н/о н/о +29.6 +17.4 48 +34 +34 очень
душно
1013.0 994.6
18 12.06 Ю 1 35 км 1/1 1500 м
[Sc diur, vesp]
+26.2 +18.6 63 +31 +31 очень
душно
1013.2 994.6 +31.9
19 12.06 ЮЗ 1 н/о н/о +24.4 +17.4 65 +28 +28 душно 1013.6 994.9
20 12.06 штиль 0 н/о н/о +23.0 +17.2 70 +28 +28 душно 1014.0 995.2
21 12.06 ЮЗ 1 н/о н/о +22.0 +17.2 74 +26 +26 душно 1014.1 995.2
22 12.06 штиль 0 н/о н/о +21.3 +16.9 76 +25 +25 комфорт 1014.4 995.5
23 12.06 штиль 0 н/о н/о +20.3 +16.7 80 +23 +23 комфорт 1014.6 995.6
00 13.06 штиль 0 н/о н/о +19.7 +16.7 83 +22 +22 комфорт 1014.8 995.7
01 13.06 штиль 0 н/о н/о +19.0 +16.6 86 +20 +20 1014.7 995.6
02 13.06 штиль 0 н/о н/о +18.7 +16.5 87 +20 +20 1014.8 995.7
03 13.06 штиль 0 н/о н/о +18.3 +16.5 89 +19 +19 1014.8 995.7
04 13.06 Ю 1 н/о н/о +20.1 +17.3 84 +24 +24 комфорт 1015.0 996.0
05 13.06 СЗ 1 н/о н/о +22.5 +17.6 74 +28 +28 душно 1015.1 996.2
06 13.06 В 1 20 км 3/0
[Ci sp]
+24.2 +17.9 68 +28 +28 душно 1015.3 996.5 +18.3
07 13.06 ЮВ 2 н/о н/о +25.4 +18.6 66 +30 +30 душно 1015.4 996.7
08 13.06 В 2 н/о н/о +26.9 +19.3 63 +32 +32 очень
душно
1015.5 996.9
09 13.06 СВ 1 н/о н/о +28.7 +19.9 59 +35 +35 очень
душно
1015.3 996.8
10 13.06 ЮВ 2 н/о н/о +30.1 +18.9 51 +35 +35 очень
душно
1015.0 996.6
11 13.06 ЮВ 2 н/о н/о +30.7 +19.1 50 +36 +36 очень
душно
1014.8 996.4
12 13.06 ЮВ 3 30 км 1/1 1380 м
[Cu hum Ci sp]
+31.1 +18.8 48 +36 +36 очень
душно
1014.4 996.1
13 13.06 В 2 н/о н/о +31.8 +19.1 47 +37 +37 очень
душно
1014.1 995.8
14 13.06 ЮВ 2 н/о н/о +32.3 +18.9 45 +37 +37 очень
душно
1013.7 995.4
15 13.06 ЮВ 1 н/о н/о +32.4 +17.8 42 +37 +37 очень
душно
1013.3 995.1
16 13.06 Ю 1 н/о н/о +32.1 +17.6 42 +36 +36 очень
душно
1013.3 995.0
17 13.06 ЮВ 1 н/о н/о +30.6 +18.3 48 +35 +35 очень
душно
1013.1 994.8
18 13.06 штиль 0 30 км ясно +27.1 +19.2 62 +33 +33 очень
душно
1013.2 994.6 +32.5
19 13.06 штиль 0 н/о н/о +25.2 +18.2 65 +30 +30 душно 1013.5 994.8
20 13.06 штиль 0 н/о н/о +23.7 +18.4 72 +28 +28 душно 1014.9 996.1
21 13.06 штиль 0 н/о н/о +22.4 +17.3 73 +27 +27 душно 1015.2 996.3
22 13.06 штиль 0 н/о н/о +21.8 +17.4 76 +26 +26 душно 1015.4 996.5
23 13.06 штиль 0 н/о н/о +20.6 +17.4 82 +24 +24 комфорт 1015.6 996.6
00 14.06 штиль 0 н/о н/о +20.0 +17.2 84 +23 +23 комфорт 1015.2 996.2
01 14.06 штиль 0 н/о н/о +19.6 +17.0 85 +22 +22 комфорт 1015.4 996.3
02 14.06 штиль 0 н/о н/о +19.4 +17.2 87 +21 +21 комфорт 1015.5 996.4
03 14.06 штиль 0 н/о н/о +19.2 +17.2 88 +21 +21 комфорт 1015.7 996.6
04 14.06 СЗ 1 н/о н/о +20.3 +17.5 84 +25 +25 комфорт 1016.4 997.4
05 14.06 СЗ 1 н/о н/о +23.3 +18.2 73 +29 +29 душно 1016.4 997.5
06 14.06 В 1 н/о н/о +25.1 +18.1 65 +29 +29 душно 1016.9 998.1 +18.9
07 14.06 В 1 н/о н/о +27.3 +18.9 60 +32 +32 очень
душно
1017.1 998.5
08 14.06 С 1 н/о н/о +28.8 +19.4 57 +35 +35 очень
душно
1017.3 998.8
09 14.06 ЮВ 1 н/о н/о +30.8 +20.1 53 +37 +37 очень
душно
1017.2 998.8
10 14.06 ЮВ 1 н/о н/о +30.3 +18.7 50 +35 +35 очень
душно
1017.4 999.0
11 14.06 ЮЗ 1 н/о н/о +28.4 +21.7 67 +36 +36 очень
душно
1017.6 999.0
12 14.06 ЮВ 1 30 км 6/5 1300 м
[Cb cap Ci ing]
+31.6 +20.2 51 +38 +38 очень
душно
1017.1 998.7
13 14.06 ЮЗ 1 н/о н/о +32.7 +19.2 45 +38 +38 очень
душно
1016.5 998.2
14 14.06 Ю 1 н/о н/о +33.6 +18.1 40 +38 +38 очень
душно
1016.2 998.0
15 14.06 Ю 1 н/о н/о +33.2 +18.6 42 +38 +38 очень
душно
1015.6 997.4
16 14.06 Ю 1 н/о н/о +32.1 +19.4 47 +38 +38 очень
душно
1015.5 997.2
17 14.06 штиль 0 н/о н/о +30.7 +21.2 57 +38 +38 очень
душно
1016.1 997.7
18 14.06 ЮЗ 1 35 км 8/5 1300 м
[Cb calv Ac cuf Ci sp]
+28.1 +21.2 66 +35 +35 очень
душно
1016.7 998.1 +33.8
19 14.06 З 1 н/о н/о +27.6 +19.9 63 +34 +34 очень
душно
1017.0 998.4
20 14.06 штиль 0 н/о н/о +26.1 +20.2 70 +32 +32 очень
душно
1016.9 998.2
21 14.06 ЮЗ 1 н/о н/о +24.5 +19.3 73 +30 +30 очень
душно
1017.2 998.4
22 14.06 штиль 0 н/о н/о +23.3 +18.6 75 +29 +29 душно 1017.0 998.1
23 14.06 штиль 0 н/о н/о +22.3 +18.5 79 +28 +28 душно 1016.8 997.9
00 15.06 З 1 н/о н/о +21.4 +18.0 81 +26 +26 душно 1017.2 998.2
01 15.06 штиль 0 н/о н/о +21.1 +18.3 84 +25 +25 комфорт 1016.7 997.7
02 15.06 штиль 0 н/о н/о +20.3 +18.1 87 +23 +23 комфорт 1017.0 997.9
03 15.06 штиль 0 н/о н/о +19.8 +17.9 89 +22 +22 комфорт 1016.9 997.8
04 15.06 штиль 0 н/о н/о +21.3 +18.3 83 +26 +26 душно 1016.7 997.7
05 15.06 штиль 0 н/о н/о +23.8 +18.5 72 +28 +28 душно 1016.4 997.6
06 15.06 В 1 15 км ясно +25.7 +18.9 66 +31 +31 очень
душно
1016.4 997.7 +19.8
07 15.06 ЮВ 1 н/о н/о +27.7 +17.8 55 +32 +32 очень
душно
1016.2 997.6
08 15.06 В 1 н/о н/о +28.4 +17.6 52 +33 +33 очень
душно
1015.9 997.4
09 15.06 ЮВ 2 н/о н/о +30.1 +19.8 54 +36 +36 очень
душно
1015.6 997.2
10 15.06 Ю 2 н/о н/о +31.4 +20.7 53 +38 +38 очень
душно
1015.0 996.7
11 15.06 ЮВ 3 н/о н/о +32.3 +20.2 49 +39 +39 очень
душно
1014.6 996.3
12 15.06 Ю 3 35 км 3/3 1500 м
[Cu hum]
+32.9 +19.4 45 +38 +38 очень
душно
1013.8 995.6
13 15.06 Ю 3 н/о н/о +32.7 +18.5 43 +37 +37 очень
душно
1013.1 994.9
14 15.06 Ю 2 н/о н/о +33.7 +19.4 43 +39 +39 очень
душно
1012.8 994.6
15 15.06 Ю 1 н/о н/о +33.8 +20.2 45 +40 +40 очень
душно
1012.2 994.1
16 15.06 Ю 1 н/о н/о +32.2 +19.5 47 +38 +38 очень
душно
1012.3 994.1
17 15.06 Ю 1 н/о н/о +30.7 +20.9 56 +38 +38 очень
душно
1012.3 994.0
18 15.06 Ю 1 25 км 5/1 1380 м
[Sc diur, vesp Ci sp]
+27.8 +20.6 65 +35 +35 очень
душно
1012.3 993.8 +33.8
19 15.06 ЮЗ 1 н/о н/о +26.4 +19.8 67 +32 +32 очень
душно
1012.6 994.0
20 15.06 ЮЗ 1 н/о н/о +24.7 +19.1 71 +30 +30 очень
душно
1013.2 994.5
21 15.06 ЮЗ 1 н/о н/о +23.7 +18.6 73 +28 +28 душно 1012.9 994.1
22 15.06 штиль 0 н/о н/о +22.6 +18.4 77 +28 +28 душно 1012.5 993.7
23 15.06 штиль 0 н/о н/о +21.9 +18.1 79 +27 +27 душно 1012.8 993.9
00 16.06 штиль 0 н/о н/о +21.7 +17.9 79 +26 +26 душно 1012.5 993.6
01 16.06 штиль 0 н/о н/о +21.0 +18.0 83 +25 +25 комфорт 1012.5 993.6
02 16.06 штиль 0 н/о н/о +20.4 +17.8 85 +24 +24 комфорт 1012.6 993.6
03 16.06 штиль 0 н/о н/о +19.9 +17.5 86 +22 +22 комфорт 1013.2 994.2
04 16.06 штиль 0 н/о н/о +20.9 +17.7 82 +25 +25 комфорт 1013.5 994.5
05 16.06 З 1 н/о н/о +24.3 +18.7 71 +29 +29 душно 1013.2 994.5
06 16.06 штиль 0 н/о н/о +27.0 +18.8 61 +32 +32 очень
душно
1013.3 994.7 +19.9
07 16.06 СВ 2 н/о н/о +27.1 +20.7 68 +34 +34 очень
душно
1013.8 995.2
08 16.06 СЗ 2 н/о н/о +29.1 +20.0 58 +35 +35 очень
душно
1013.5 995.1
09 16.06 СВ 1 н/о н/о +30.6 +19.6 52 +37 +37 очень
душно
1013.4 995.0
10 16.06 ЮВ 1 н/о н/о +32.1 +18.7 45 +37 +37 очень
душно
1013.0 994.7
11 16.06 ЮЗ 1 н/о н/о +33.0 +19.1 44 +38 +38 очень
душно
1012.7 994.5
12 16.06 Ю 1 30 км 6/4 1500 м
[Cb calv Ac cast Ci sp]
+33.3 +19.4 44 +39 +39 очень
душно
1012.2 994.0
13 16.06 З 1 н/о н/о +32.3 +19.2 46 +38 +38 очень
душно
1011.4 993.2
14 16.06 СЗ 3 н/о н/о +32.5 +20.1 48 +39 +39 очень
душно
1011.2 993.0
15 16.06 С 1 н/о н/о +31.3 +18.3 46 +36 +36 очень
душно
1010.8 992.5
16 16.06 штиль 0 н/о н/о +29.3 +21.3 62 +37 +37 очень
душно
1011.5 993.1
17 16.06 В 2
{7}
н/о н/о +28.8 +21.1 63 +36 +36 очень
душно
1011.9 993.5
18 16.06 СЗ 2
{12}
500 м гроза, ливневой дождь 10/10 600 м
[Cb cap]
+19.2 +19.2 100 +22 +22 комфорт 1016.6 997.5 +33.7 17
19 16.06 З 4
{10}
н/о н/о +19.0 +19.0 100 +21 +21 комфорт 1016.7 997.6
20 16.06 ЮЗ 1
{7}
н/о н/о +19.0 +18.5 97 +22 +22 комфорт 1018.2 999.0
21 16.06 З 1 10 км слаб. морось {гроза} 10/4 600 м
[Cb cap Ac As]
+18.4 +18.2 99 +20 +20 1016.4 997.2
22 16.06 З 2 н/о н/о +18.1 +18.1 100 +19 +19 1015.2 996.0
23 16.06 СВ 3
{8}
н/о н/о +18.5 +18.0 97 +20 +20 1018.3 999.1
00 17.06 С 1 н/о н/о +18.2 +17.7 97 +20 +20 1018.1 998.9 11
01 17.06 З 3 н/о н/о +18.0 +17.4 96 +18 +18 1017.1 997.9
02 17.06 З 4
{9}
н/о н/о +18.1 +17.5 96 +18 +18 1016.4 997.2
03 17.06 СЗ 2
{7}
н/о н/о +18.4 +17.4 94 +20 +20 1017.0 997.8
04 17.06 З 1 н/о н/о +18.8 +17.8 94 +21 +21 комфорт 1016.7 997.6
05 17.06 СЗ 1 н/о н/о +19.9 +18.0 89 +24 +24 комфорт 1017.2 998.1
06 17.06 СЗ 3 20 км 6/3 1200 м
[Sc Ac cast Ci sp]
+23.3 +17.7 71 +29 +29 душно 1017.6 998.7 +17.9 11
07 17.06 СЗ 2 н/о н/о +23.2 +17.4 70 +29 +29 душно 1018.0 999.1
08 17.06 С 3
{7}
н/о н/о +23.1 +17.1 69 +28 +28 душно 1018.2 999.3
09 17.06 С 3 н/о н/о +22.9 +17.1 70 +28 +28 душно 1018.6 999.7
10 17.06 н/о н/о +22.9 +16.9 69 1018.8 999.9
11 17.06 С 4
{8}
н/о н/о +23.6 +16.9 66 +27 +27 жарко 1018.6 999.7
12 17.06 С 4
{9}
н/о н/о +24.5 +17.0 63 +28 +28 душно 1018.2 999.4
13 17.06 С 4
{9}
н/о н/о +24.6 +15.0 55 +27 +27 жарко 1017.8 999.0
14 17.06 СВ 3
{7}
н/о н/о +24.6 +14.7 54 +27 +27 жарко 1017.6 998.8
15 17.06 С 3
{7}
н/о н/о +24.9 +13.8 50 +27 +27 жарко 1017.0 998.2
16 17.06 С 3
{7}
н/о н/о +24.7 +12.6 47 +27 +27 жарко 1016.9 998.1
17 17.06 С 3
{7}
н/о н/о +23.1 +10.9 46 +25 +25 комфорт 1017.1 998.2
18 17.06 С 2 40 км 3/1 1300 м
[Sc Ac lent Ci sp]
+21.8 +9.4 45 +23 +23 комфорт 1017.7 998.7 +25.1
19 17.06 СЗ 2 н/о н/о +20.4 +10.2 52 +23 +23 комфорт 1018.4 999.3
20 17.06 З 1 н/о н/о +18.9 +11.7 63 +21 +21 комфорт 1018.5 999.3
21 17.06 З 1 н/о н/о +17.1 +12.2 73 +18 +18 1018.6 999.3
22 17.06 СЗ 1 н/о н/о +16.5 +11.6 73 +17 +17 1018.4 999.1
23 17.06 З 2 н/о н/о +16.4 +11.3 72 +17 +17 1018.1 998.8
00 18.06 З 1 н/о н/о +16.2 +10.9 71 +17 +17 1017.9 998.6
01 18.06 З 1 н/о н/о +16.0 +10.5 70 +17 +17 1017.8 998.4
02 18.06 З 1 н/о н/о +16.3 +10.8 70 +17 +17 1017.7 998.4
03 18.06 З 1 н/о н/о +15.7 +10.9 73 +16 +16 1017.9 998.5
04 18.06 З 1 н/о н/о +17.0 +11.7 71 +18 +18 1017.9 998.6
05 18.06 З 1 н/о н/о +19.8 +13.0 65 +23 +23 комфорт 1017.8 998.7
06 18.06 СЗ 2 25 км 6/0
[Ac cast Ci sp]
+21.2 +12.4 57 +23 +23 комфорт 1018.0 999.0 +15.7
07 18.06 С 2 н/о н/о +22.7 +14.0 58 +26 +26 жарко 1017.9 999.0
08 18.06 С 2 н/о н/о +22.9 +15.0 61 +27 +27 душно 1017.9 999.0
09 18.06 С 2 н/о н/о +24.8 +16.2 59 +28 +28 жарко 1017.5 998.7
10 18.06 СВ 1 н/о н/о +25.8 +16.6 57 +29 +29 душно 1017.2 998.5
11 18.06 В 2 н/о н/о +26.9 +17.4 56 +31 +31 душно 1016.7 998.1
12 18.06 Ю 1 35 км 6/3 1200 м
[Cu hum Ci sp]
+28.2 +17.4 52 +32 +32 душно 1015.9 997.4
13 18.06 В 1 н/о н/о +27.8 +17.3 53 +32 +32 душно 1015.5 996.9
14 18.06 СВ 1 н/о н/о +27.3 +17.8 56 +32 +32 очень
душно
1015.2 996.6
15 18.06 штиль 0 н/о н/о +27.4 +18.1 57 +32 +32 очень
душно
1014.7 996.1
16 18.06 СЗ 1 н/о н/о +27.9 +18.3 56 +33 +33 очень
душно
1014.4 995.9
17 18.06 В 1 н/о н/о +24.6 +20.3 77 +30 +30 очень
душно
1014.6 995.9
18 18.06 штиль 0 35 км 8/5 1200 м
[Cb calv Ac cuf Ci sp]
+24.2 +20.1 78 +30 +30 очень
душно
1015.1 996.3 +29.1 0.1
19 18.06 штиль 0 н/о н/о +23.0 +19.4 80 +29 +29 очень
душно
1015.5 996.6
20 18.06 З 1 н/о н/о +22.0 +19.0 83 +27 +27 душно 1015.5 996.6
21 18.06 З 1 30 км гроза без осадков 9/5 1200 м
[Cb cap Ac cuf]
+21.7 +18.5 82 +26 +26 душно 1015.8 996.9
22 18.06 З 2 н/о н/о +21.1 +17.9 82 +25 +25 комфорт 1016.2 997.2
23 18.06 З 1 н/о н/о +20.2 +19.7 97 +25 +25 комфорт 1015.6 996.6
00 19.06 СЗ 1 н/о н/о +19.3 +18.8 97 +23 +23 комфорт 1015.5 996.4 2
01 19.06 ЮЗ 1 н/о н/о +19.2 +18.7 97 +22 +22 комфорт 1015.1 996.0
02 19.06 З 1 н/о н/о +18.8 +18.3 97 +21 +21 комфорт 1014.9 995.8
03 19.06 З 1 н/о н/о +18.4 +18.1 98 +20 +20 1015.0 995.9

 

Местоположение метеостанции Мишкольц (Венгрия): широта 48.10 долгота 20.77 высота над уровнем моря 236 м.

В архиве по умолчанию представлена погода в Мишкольце за последнюю неделю. Архивные данные за месяц целиком и за предыдущие месяцы, начиная с января 2011 года, Вы можете получить, выбрав интересующий диапазон дат из раскрывающегося списка и нажав кнопку "Ввод!".


*Определитесь, кто Вы:
робот инопланетянин человек

Внимание! Время в таблицах - всемирное. Для получения местного времени необходимо прибавить поправку, которая равна 1 ч.

Смотрите также архив погоды в соседних городах и на ближайших метеорологических станциях:

Погода в Эгере (Венгрия) (37 км)
Погода в Йосвафо (Венгрия) (46 км)
Погода в Порозло (Венгрия) (51 км)
Погода на Кекеше (Венгрия) (61 км)
Погода в Кошице (Словакия) (72 км)
Погода на Станции Kojsovska Hola (Словакия) (77 км)
Погода в Лученце (Словакия) (81 км)
Погода в Ньиредьхазе (Венгрия) (84 км)
Погода в Дебрецене (Венгрия) (93 км)
Погода в Сечене (Польша) (93 км)

Пояснения к столбцам:

Ветер - указаны скорость ветра в м/с - средняя за 10 мин, порывы в срок и между сроками (в фигурных скобках) и направление, откуда дует ветер: С - северный, СВ - северо-восточный, В - восточный, ЮВ - юго-восточный, Ю - южный, ЮЗ - юго-западный, З - западный, СЗ - северо-западный.
Видимость - горизонтальная дальность видимости в метрах или километрах. При видимости от 1 до 10 км при отсутствии осадков обычно наблюдается дымка, при ухудшении видимости до 1 км и менее - туман. В сухую погоду видимость может ухудшаться дымом, пылью или мглою.
Явления - указаны атмосферные явления, наблюдавшиеся в срок или в последний час перед сроком; фигурными скобками обозначены явления, наблюдавшиеся между сроками (за 1-3 часа до срока); квадратными скобками обозначены град или гололедные отложения с указанием их диаметра в мм.
Облачность - указаны через наклонную черту общая и нижняя облачность в баллах и высота нижней границы облаков в метрах; квадратными скобками обозначены формы облаков: Ci - перистые, Cs - перисто-слоистые, Cc - перисто-кучевые, Ac - высококучевые, As - высокослоистые, Sc - слоисто-кучевые, Ns - слоисто-дождевые, Cu - кучевые, Cb - кучево-дождевые. Подробнее классификацию облаков см. в Атласе облаков (PDF).
T - Температура воздуха - температура, измеренная на высоте 2 м над землей.
Td - Температура точки росы - температура, при понижении до которой содержащийся в воздухе водяной пар достигнет насыщения.
f - Относительная влажность воздуха - влажноcть воздуха, измеренная на высоте 2 м над землей.
Te - Эффективная температура - температура, которую ощущает одетый по сезону человек в тени. Характеристика душности погоды. При расчете учитывается влияние влажности воздуха и скорости ветра на теплоощущения человека.
Tes - Эффективная температура на солнце - температура, которую ощущает человек, с поправкой на солнечный нагрев. Характеристика знойности погоды. Зависит от высоты солнца над горизонтом, облачности и скорости ветра. Ночью, в пасмурную погоду, а также при ветре 12 м/с и более поправка равна нулю.
P - Атмосферное давление - приведенное к уровню моря атмосферное давление.
Po - Атмосферное давление - измеренное на уровне метеостанции атмосферное давление.
Tmin - Минимальная температура - минимум температуры воздуха на высоте 2 м над землей.
Tmax - Максимальная температура - максимум температуры воздуха на высоте 2 м над землей.
R - Количество осадков - Количество выпавших осадков за период времени, мм. При наведении курсора мыши на число - период времени, за который выпало указанное количество осадков.
R24 - Количество осадков - Количество выпавших осадков за 24 часа, мм.
S - Снежный покров - Высота снежного покрова, см. При наведении курсора мыши на число - состояние снежного покрова и степень покрытия местности в баллах.